This demonstration page uses our WeatherBlox Daily Observations layout. Learn more.

Left ArrowRight Arrow

39.08367, -84.50855

Hourly Observations for May 4, 2020

Temp ( °F °C ) Dew Point ( °F °C ) Humidity (%) Winds ( mph kmh ) Pressure ( in mb ) Visibility ( mi km ) Precip ( " mm )
12:53 am 00:53 Clear with Mist and Fog 51 10.6 51 10.6 100 100 Calm 29.95 1014 3 4.82802 0 0
12:57 am 00:57 Clear with Mist and Fog 50 10 49 9.4 96 96 Calm 29.96 1014 0.75 1.207005 0 0
1:08 am 01:08 Clear with Fog 48 8.9 48 8.9 100 100 Calm 29.97 1015 0.25 0.402335 0 0
1:20 am 01:20 Mostly Cloudy with Fog 49 9.4 48 8.9 97 97 Calm 29.98 1015 0.25 0.402335 0 0
1:53 am 01:53 Mostly Cloudy with Fog 47 8.3 47 8.3 100 100 Calm 29.96 1015 0.5 0.80467 0 0
2:20 am 02:20 Clear with Mist and Fog 47 8.3 47 8.3 100 100 Calm 29.97 1015 0.75 1.207005 0 0
2:29 am 02:29 Mostly Cloudy with Fog 48 8.9 47 8.3 96 96 Calm 29.97 1015 0.5 0.80467 0 0
2:43 am 02:43 Mostly Cloudy with Fog 47 8.3 46 7.8 97 97 Calm 29.97 1015 0.25 0.402335 0 0
2:53 am 02:53 Mostly Cloudy with Fog 44 6.7 44 6.7 100 100 Calm 29.96 1015 0.25 0.402335 0 0
3:53 am 03:53 Mostly Cloudy with Fog 45 7.2 44 6.7 97 97 Calm 29.97 1015 0.25 0.402335 0 0
4:03 am 04:03 Mostly Cloudy with Fog 44 6.7 44 6.7 100 100 SSW 3 6 29.98 1015 0.5 0.80467 0 0
4:18 am 04:18 Mostly Cloudy with Fog 43 6.1 43 6.1 100 100 Calm 30 1016 0.25 0.402335 0 0
4:53 am 04:53 Mostly Cloudy with Fog 45 7.2 44 6.7 97 97 Calm 29.98 1015 0.25 0.402335 0 0
5:34 am 05:34 Mostly Cloudy with Mist and Fog 45 7.2 45 7.2 100 100 WSW 3 6 29.99 1016 0.75 1.207005 0 0
5:42 am 05:42 Mostly Cloudy with Mist and Fog 45 7.2 45 7.2 100 100 W 3 6 30 1016 1.25 2.011675 0 0
5:53 am 05:53 Mostly Cloudy with Mist and Fog 46 7.8 46 7.8 100 100 WSW 3 6 29.99 1016 1 1.60934 0 0
6:00 am 06:00 Mostly Cloudy with Fog 46 7.8 46 7.8 100 100 Calm 30.01 1016 0.5 0.80467 0 0
6:07 am 06:07 Mostly Cloudy with Fog 44 6.7 44 6.7 100 100 Calm 30.02 1017 0.25 0.402335 0 0
6:53 am 06:53 Mostly Cloudy with Fog 44 6.7 44 6.7 100 100 SW 5 7 30.01 1016 N/A 0 0
7:53 am 07:53 Cloudy with Mist and Fog 47 8.3 47 8.3 100 100 Calm 30.04 1017 2 3.21868 0 0
8:16 am 08:16 Mostly Sunny 48 8.9 48 8.9 100 100 Calm 30.05 1018 9 14.48406 0 0
8:53 am 08:53 Sunny 52 11.1 50 10 93 93 Calm 30.04 1017 10 16.0934 0 0
9:53 am 09:53 Sunny 59 15 47 8.3 64 64 NNE 6 9 30.05 1018 10 16.0934 0 0
10:53 am 10:53 Sunny 62 16.7 46 7.8 56 56 VRB 7 11 30.06 1018 10 16.0934 0 0
11:53 am 11:53 Sunny 66 18.9 45 7.2 47 47 N 7 11 30.06 1018 10 16.0934 0 0
12:53 pm 12:53 Sunny 67 19.4 45 7.2 45 45 NNW 13 20 30.06 1018 10 16.0934 0 0
1:53 pm 13:53 Sunny 69 20.6 45 7.2 42 42 VRB 6 9 30.01 1016 10 16.0934 0 0
2:53 pm 14:53 Sunny 70 21.1 42 5.6 37 37 VRB 6 9 30.01 1016 10 16.0934 0 0
3:53 pm 15:53 Sunny 69 20.6 43 6.1 39 39 NE 8 13 30 1016 10 16.0934 0 0
4:53 pm 16:53 Sunny 68 20 43 6.1 40 40 ENE 5 7 30.03 1017 10 16.0934 0 0
5:53 pm 17:53 Sunny 66 18.9 45 7.2 47 47 NE 7 11 30.01 1016 10 16.0934 0 0
6:53 pm 18:53 Sunny 65 18.3 44 6.7 47 47 NE 6 9 30.03 1017 10 16.0934 0 0
7:53 pm 19:53 Sunny 63 17.2 47 8.3 56 56 ENE 6 9 30.02 1017 10 16.0934 0 0
8:53 pm 20:53 Clear 61 16.1 46 7.8 58 58 NE 6 9 30 1016 10 16.0934 0 0
9:53 pm 21:53 Clear 60 15.6 44 6.7 56 56 E 7 11 29.95 1014 10 16.0934 0 0
10:53 pm 22:53 Clear 59 15 42 5.6 54 54 ENE 6 9 29.95 1014 10 16.0934 0 0
11:53 pm 23:53 Clear 58 14.4 43 6.1 58 58 NE 6 9 29.95 1014 10 16.0934 0 0

Powered by AerisWeather